TimePDT,TemperatureF,Dew PointF,Humidity,Sea Level PressureIn,VisibilityMPH,Wind Direction,Wind SpeedMPH,Gust SpeedMPH,PrecipitationIn,Events,Conditions,WindDirDegrees,DateUTC
12:15 AM,59.0,59.0,100,29.99,3.0,Calm,Calm,-,0.06,Rain,Rain,0,2013-09-06 07:15:00
12:35 AM,59.0,59.0,100,30.00,4.0,Calm,Calm,-,0.16,Rain,Rain,0,2013-09-06 07:35:00
12:55 AM,59.0,59.0,100,30.00,3.0,Calm,Calm,-,0.26,Rain,Heavy Rain,0,2013-09-06 07:55:00
1:15 AM,59.0,59.0,100,30.00,3.0,Calm,Calm,-,0.08,Rain,Heavy Rain,0,2013-09-06 08:15:00
1:35 AM,59.0,59.0,100,30.00,2.5,Calm,Calm,-,0.28,Rain,Heavy Rain,0,2013-09-06 08:35:00
1:55 AM,59.0,59.0,100,29.99,2.5,Calm,Calm,-,0.44,Rain,Heavy Rain,0,2013-09-06 08:55:00
2:15 AM,59.0,59.0,100,29.99,5.0,Calm,Calm,-,0.07,Rain,Light Rain,0,2013-09-06 09:15:00
2:35 AM,59.0,59.0,100,29.99,5.0,Calm,Calm,-,0.17,Rain,Rain,0,2013-09-06 09:35:00
2:55 AM,59.0,59.0,100,29.99,2.5,Calm,Calm,-,0.32,Rain,Rain,0,2013-09-06 09:55:00
3:15 AM,59.0,59.0,100,29.98,5.0,Calm,Calm,-,0.04,Rain,Rain,0,2013-09-06 10:15:00
3:35 AM,59.0,59.0,100,29.98,4.0,Calm,Calm,-,0.09,Rain,Rain,0,2013-09-06 10:35:00
3:55 AM,59.0,59.0,100,29.98,4.0,Calm,Calm,-,0.15,Rain,Rain,0,2013-09-06 10:55:00
4:15 AM,59.0,59.0,100,29.98,3.0,Calm,Calm,-,0.05,Rain,Light Rain,0,2013-09-06 11:15:00
4:35 AM,59.0,59.0,100,29.98,2.5,Calm,Calm,-,0.21,Rain,Heavy Rain,0,2013-09-06 11:35:00
4:55 AM,59.0,59.0,100,29.97,4.0,Calm,Calm,-,0.25,Rain,Light Rain,0,2013-09-06 11:55:00
5:15 AM,59.0,59.0,100,29.98,8.0,Calm,Calm,-,N/A,Rain,Light Rain,0,2013-09-06 12:15:00
5:35 AM,59.0,59.0,100,29.98,2.5,Calm,Calm,-,0.04,Rain,Rain,0,2013-09-06 12:35:00
5:55 AM,59.0,59.0,100,29.98,2.0,Calm,Calm,-,0.08,Rain,Light Rain,0,2013-09-06 12:55:00
6:15 AM,59.0,59.0,100,29.99,1.8,Calm,Calm,-,0.10,Rain,Rain,0,2013-09-06 13:15:00
6:35 AM,59.0,59.0,100,29.99,2.5,Calm,Calm,-,0.13,Rain,Light Rain,0,2013-09-06 13:35:00
6:55 AM,59.0,59.0,100,30.00,2.0,Calm,Calm,-,0.14,Rain,Light Rain,0,2013-09-06 13:55:00
7:15 AM,59.0,59.0,100,30.00,3.0,Calm,Calm,-,0.01,Rain,Light Rain,0,2013-09-06 14:15:00
7:35 AM,59.0,59.0,100,30.01,2.5,Calm,Calm,-,0.04,Rain,Light Rain,0,2013-09-06 14:35:00
7:55 AM,59.0,59.0,100,30.02,5.0,Calm,Calm,-,0.05,Rain,Light Rain,0,2013-09-06 14:55:00
8:15 AM,59.0,59.0,100,30.02,5.0,Calm,Calm,-,N/A,Rain,Light Rain,0,2013-09-06 15:15:00
8:35 AM,59.0,59.0,100,30.02,5.0,Calm,Calm,-,0.01,Rain,Light Rain,0,2013-09-06 15:35:00
8:55 AM,59.0,59.0,100,30.03,4.0,Calm,Calm,-,0.02,Rain,Light Rain,0,2013-09-06 15:55:00
9:15 AM,59.0,59.0,100,30.03,4.0,Calm,Calm,-,0.01,Rain,Light Rain,0,2013-09-06 16:15:00
9:35 AM,59.0,59.0,100,30.04,3.0,Calm,Calm,-,0.03,Rain,Light Rain,0,2013-09-06 16:35:00
9:55 AM,59.0,59.0,100,30.04,4.0,Calm,Calm,-,0.04,Rain,Light Rain,0,2013-09-06 16:55:00
10:15 AM,59.0,59.0,100,30.05,3.0,Calm,Calm,-,0.02,Rain,Rain,0,2013-09-06 17:15:00
10:35 AM,59.0,59.0,100,30.05,6.0,Calm,Calm,-,0.02,Rain,Light Rain,0,2013-09-06 17:35:00
10:55 AM,60.8,60.8,100,30.05,9.0,Calm,Calm,-,0.02,Rain,Light Rain,0,2013-09-06 17:55:00
11:15 AM,60.8,60.8,100,30.06,9.0,Calm,Calm,-,N/A,Rain,Light Rain,0,2013-09-06 18:15:00
11:35 AM,60.8,60.8,100,30.06,3.0,Calm,Calm,-,N/A,Rain,Light Rain,0,2013-09-06 18:35:00
11:55 AM,60.8,60.8,100,30.06,2.0,Calm,Calm,-,0.01,Rain,Light Rain,0,2013-09-06 18:55:00
12:15 PM,60.8,60.8,100,30.07,2.0,Calm,Calm,-,N/A,Rain,Light Rain,0,2013-09-06 19:15:00
12:35 PM,60.8,60.8,100,30.07,1.0,Calm,Calm,-,0.01,Rain,Light Rain,0,2013-09-06 19:35:00
12:55 PM,60.8,60.8,100,30.07,1.0,Calm,Calm,-,0.01,Rain,Light Rain,0,2013-09-06 19:55:00
1:15 PM,62.6,62.6,100,30.07,6.0,Calm,Calm,-,0.01,,Mostly Cloudy,0,2013-09-06 20:15:00
1:35 PM,62.6,62.6,100,30.08,10.0,Calm,Calm,-,0.01,,Overcast,0,2013-09-06 20:35:00
1:55 PM,64.4,64.4,100,30.08,10.0,Calm,Calm,-,0.01,,Overcast,0,2013-09-06 20:55:00
2:15 PM,64.4,64.4,100,30.08,10.0,Calm,Calm,-,N/A,,Overcast,0,2013-09-06 21:15:00
2:35 PM,64.4,64.4,100,30.08,10.0,Calm,Calm,-,N/A,,Overcast,0,2013-09-06 21:35:00
2:55 PM,64.4,64.4,100,30.09,9.0,Calm,Calm,-,N/A,,Overcast,0,2013-09-06 21:55:00
3:15 PM,64.4,62.6,94,30.09,10.0,Calm,Calm,-,N/A,,Mostly Cloudy,0,2013-09-06 22:15:00
3:35 PM,66.2,62.6,88,30.09,10.0,Calm,Calm,-,N/A,,Overcast,0,2013-09-06 22:35:00
3:55 PM,64.4,64.4,100,30.09,8.0,Calm,Calm,-,N/A,Rain,Light Rain,0,2013-09-06 22:55:00
4:15 PM,64.4,64.4,100,30.10,3.0,Calm,Calm,-,N/A,Rain,Light Rain,0,2013-09-06 23:15:00
4:35 PM,64.4,64.4,100,30.10,10.0,Calm,Calm,-,N/A,,Overcast,0,2013-09-06 23:35:00
4:55 PM,64.4,64.4,100,30.10,10.0,Calm,Calm,-,N/A,,Mostly Cloudy,0,2013-09-06 23:55:00
5:15 PM,64.4,64.4,100,30.11,8.0,Calm,Calm,-,N/A,,Overcast,0,2013-09-07 00:15:00
5:35 PM,64.4,62.6,94,30.11,5.0,Calm,Calm,-,N/A,Rain,Light Rain,0,2013-09-07 00:35:00
5:55 PM,64.4,62.6,94,30.11,10.0,Calm,Calm,-,N/A,,Mostly Cloudy,0,2013-09-07 00:55:00
6:15 PM,64.4,62.6,94,30.11,10.0,Calm,Calm,-,N/A,,Mostly Cloudy,0,2013-09-07 01:15:00
6:35 PM,64.4,62.6,94,30.11,10.0,Calm,Calm,-,N/A,,Overcast,0,2013-09-07 01:35:00
6:55 PM,64.4,62.6,94,30.11,10.0,Calm,Calm,-,N/A,,Overcast,0,2013-09-07 01:55:00
7:15 PM,64.4,62.6,94,30.11,10.0,Calm,Calm,-,N/A,,Overcast,0,2013-09-07 02:15:00
7:35 PM,64.4,62.6,94,30.11,10.0,Calm,Calm,-,N/A,,Overcast,0,2013-09-07 02:35:00
7:55 PM,64.4,62.6,94,30.11,10.0,Calm,Calm,-,N/A,,Overcast,0,2013-09-07 02:55:00
8:15 PM,62.6,62.6,100,30.12,10.0,Calm,Calm,-,N/A,,Overcast,0,2013-09-07 03:15:00
8:35 PM,62.6,62.6,100,30.12,10.0,Calm,Calm,-,N/A,,Overcast,0,2013-09-07 03:35:00
8:55 PM,62.6,62.6,100,30.12,10.0,Calm,Calm,-,N/A,,Overcast,0,2013-09-07 03:55:00
9:15 PM,62.6,62.6,100,30.12,10.0,Calm,Calm,-,N/A,,Overcast,0,2013-09-07 04:15:00
9:35 PM,62.6,62.6,100,30.13,10.0,Calm,Calm,-,N/A,,Overcast,0,2013-09-07 04:35:00
9:55 PM,62.6,62.6,100,30.13,10.0,Calm,Calm,-,N/A,,Overcast,0,2013-09-07 04:55:00
10:15 PM,60.8,60.8,100,30.13,10.0,Calm,Calm,-,N/A,,Overcast,0,2013-09-07 05:15:00
10:35 PM,60.8,60.8,100,30.13,10.0,Calm,Calm,-,N/A,,Overcast,0,2013-09-07 05:35:00
10:55 PM,60.8,60.8,100,30.13,10.0,Calm,Calm,-,N/A,,Overcast,0,2013-09-07 05:55:00
11:15 PM,60.8,60.8,100,30.13,9.0,Calm,Calm,-,N/A,,Overcast,0,2013-09-07 06:15:00
11:35 PM,60.8,60.8,100,30.13,10.0,Calm,Calm,-,N/A,,Overcast,0,2013-09-07 06:35:00
11:55 PM,60.8,60.8,100,30.13,9.0,Calm,Calm,-,N/A,,Overcast,0,2013-09-07 06:55:00